Year,Month,Day,Hour,Minute,Value (Times are PST for temperature in C)
2018,05,22,00,00,11.10
2018,05,22,00,01,11.10
2018,05,22,00,02,11.10
2018,05,22,00,03,11.00
2018,05,22,00,04,10.90
2018,05,22,00,05,10.90
2018,05,22,00,06,10.90
2018,05,22,00,07,10.90
2018,05,22,00,08,10.90
2018,05,22,00,09,10.90
2018,05,22,00,10,10.80
2018,05,22,00,11,10.80
2018,05,22,00,12,10.70
2018,05,22,00,13,10.70
2018,05,22,00,14,10.60
2018,05,22,00,15,10.60
2018,05,22,00,16,10.60
2018,05,22,00,17,10.60
2018,05,22,00,18,10.50
2018,05,22,00,19,10.40
2018,05,22,00,20,10.40
2018,05,22,00,21,10.40
2018,05,22,00,22,10.40
2018,05,22,00,23,10.40
2018,05,22,00,24,10.40
2018,05,22,00,25,10.40
2018,05,22,00,26,10.40
2018,05,22,00,27,10.40
2018,05,22,00,28,10.40
2018,05,22,00,29,10.40
2018,05,22,00,30,10.40
2018,05,22,00,31,10.30
2018,05,22,00,32,10.30
2018,05,22,00,33,10.30
2018,05,22,00,34,10.30
2018,05,22,00,35,10.30
2018,05,22,00,36,10.30
2018,05,22,00,37,10.30
2018,05,22,00,38,10.30
2018,05,22,00,39,10.30
2018,05,22,00,40,10.30
2018,05,22,00,41,10.30
2018,05,22,00,42,10.30
2018,05,22,00,43,10.30
2018,05,22,00,44,10.30
2018,05,22,00,45,10.30
2018,05,22,00,46,10.40
2018,05,22,00,47,10.40
2018,05,22,00,48,10.40
2018,05,22,00,49,10.40
2018,05,22,00,50,10.40
2018,05,22,00,51,10.30
2018,05,22,00,52,10.30
2018,05,22,00,53,10.30
2018,05,22,00,54,10.30
2018,05,22,00,55,10.30
2018,05,22,00,56,10.30
2018,05,22,00,57,10.20
2018,05,22,00,58,10.20
2018,05,22,00,59,10.20
2018,05,22,01,00,10.20
2018,05,22,01,01,10.20
2018,05,22,01,02,10.20
2018,05,22,01,03,10.20
2018,05,22,01,04,10.20
2018,05,22,01,05,10.20
2018,05,22,01,06,10.20
2018,05,22,01,07,10.20
2018,05,22,01,08,10.20
2018,05,22,01,09,10.20
2018,05,22,01,10,10.20
2018,05,22,01,11,10.10
2018,05,22,01,12,10.10
2018,05,22,01,13,10.10
2018,05,22,01,14,10.10
2018,05,22,01,15,10.10
2018,05,22,01,16,10.10
2018,05,22,01,17,10.10
2018,05,22,01,18,10.10
2018,05,22,01,19,10.00
2018,05,22,01,20,9.90
2018,05,22,01,21,9.90
2018,05,22,01,22,9.90
2018,05,22,01,23,9.90
2018,05,22,01,24,9.90
2018,05,22,01,25,9.90
2018,05,22,01,26,9.90
2018,05,22,01,27,9.80
2018,05,22,01,28,9.80
2018,05,22,01,29,9.80
2018,05,22,01,30,9.80
2018,05,22,01,31,9.80
2018,05,22,01,32,9.80
2018,05,22,01,33,9.80
2018,05,22,01,34,9.80
2018,05,22,01,35,9.80
2018,05,22,01,36,9.70
2018,05,22,01,37,9.70
2018,05,22,01,38,9.70
2018,05,22,01,39,9.70
2018,05,22,01,40,9.70
2018,05,22,01,41,9.70
2018,05,22,01,42,9.70
2018,05,22,01,43,9.70
2018,05,22,01,44,9.70
2018,05,22,01,45,9.70
2018,05,22,01,46,9.70
2018,05,22,01,47,9.70
2018,05,22,01,48,9.70
2018,05,22,01,49,9.70
2018,05,22,01,50,9.70
2018,05,22,01,51,9.70
2018,05,22,01,52,9.70
2018,05,22,01,53,9.70
2018,05,22,01,54,9.70
2018,05,22,01,55,9.70
2018,05,22,01,56,9.70
2018,05,22,01,57,9.70
2018,05,22,01,58,9.70
2018,05,22,01,59,9.70
2018,05,22,02,00,9.70
2018,05,22,02,01,9.60
2018,05,22,02,02,9.60
2018,05,22,02,03,9.60
2018,05,22,02,04,9.60
2018,05,22,02,05,9.50
2018,05,22,02,06,9.50
2018,05,22,02,07,9.50
2018,05,22,02,08,9.50
2018,05,22,02,09,9.40
2018,05,22,02,10,9.40
2018,05,22,02,11,9.40
2018,05,22,02,12,9.40
2018,05,22,02,13,9.30
2018,05,22,02,14,9.30
2018,05,22,02,15,9.30
2018,05,22,02,16,9.30
2018,05,22,02,17,9.30
2018,05,22,02,18,9.30
2018,05,22,02,19,9.30
2018,05,22,02,20,9.30
2018,05,22,02,21,9.30
2018,05,22,02,22,9.30
2018,05,22,02,23,9.30
2018,05,22,02,24,9.30
2018,05,22,02,25,9.30
2018,05,22,02,26,9.30
2018,05,22,02,27,9.30
2018,05,22,02,28,9.30
2018,05,22,02,29,9.30
2018,05,22,02,30,9.30
2018,05,22,02,31,9.30
2018,05,22,02,32,9.30
2018,05,22,02,33,9.30
2018,05,22,02,34,9.30
2018,05,22,02,35,9.30
2018,05,22,02,36,9.20
2018,05,22,02,37,9.20
2018,05,22,02,38,9.20
2018,05,22,02,39,9.20
2018,05,22,02,40,9.20
2018,05,22,02,41,9.20
2018,05,22,02,42,9.20
2018,05,22,02,43,9.20
2018,05,22,02,44,9.20
2018,05,22,02,45,9.20
2018,05,22,02,46,9.20
2018,05,22,02,47,9.20
2018,05,22,02,48,9.20
2018,05,22,02,49,9.20
2018,05,22,02,50,9.20
2018,05,22,02,51,9.20
2018,05,22,02,52,9.20
2018,05,22,02,53,9.20
2018,05,22,02,54,9.20
2018,05,22,02,55,9.20
2018,05,22,02,56,9.20
2018,05,22,02,57,9.20
2018,05,22,02,58,9.10
2018,05,22,02,59,9.10
2018,05,22,03,00,9.10
2018,05,22,03,01,9.10
2018,05,22,03,02,9.10
2018,05,22,03,03,9.10
2018,05,22,03,04,9.10
2018,05,22,03,05,9.00
2018,05,22,03,06,9.00
2018,05,22,03,07,9.00
2018,05,22,03,08,9.00
2018,05,22,03,09,9.00
2018,05,22,03,10,8.90
2018,05,22,03,11,8.90
2018,05,22,03,12,8.90
2018,05,22,03,13,8.90
2018,05,22,03,14,8.90
2018,05,22,03,15,8.90
2018,05,22,03,16,8.90
2018,05,22,03,17,8.90
2018,05,22,03,18,8.90
2018,05,22,03,19,8.90
2018,05,22,03,20,8.80
2018,05,22,03,21,8.80
2018,05,22,03,22,8.80
2018,05,22,03,23,8.80
2018,05,22,03,24,8.80
2018,05,22,03,25,8.80
2018,05,22,03,26,8.80
2018,05,22,03,27,8.80
2018,05,22,03,28,8.90
2018,05,22,03,29,8.90
2018,05,22,03,30,8.90
2018,05,22,03,31,8.90
2018,05,22,03,32,8.90
2018,05,22,03,33,8.90
2018,05,22,03,34,8.90
2018,05,22,03,35,8.90
2018,05,22,03,36,8.80
2018,05,22,03,37,8.80
2018,05,22,03,38,8.80
2018,05,22,03,39,8.70
2018,05,22,03,40,8.70
2018,05,22,03,41,8.70
2018,05,22,03,42,8.70
2018,05,22,03,43,8.70
2018,05,22,03,44,8.70
2018,05,22,03,45,8.70
2018,05,22,03,46,8.70
2018,05,22,03,47,8.70
2018,05,22,03,48,8.70
2018,05,22,03,49,8.70
2018,05,22,03,50,8.70
2018,05,22,03,51,8.70
2018,05,22,03,52,8.70
2018,05,22,03,53,8.70
2018,05,22,03,54,8.70
2018,05,22,03,55,8.70
2018,05,22,03,56,8.70
2018,05,22,03,57,8.80
2018,05,22,03,58,8.80
2018,05,22,03,59,8.80
2018,05,22,04,00,8.80
2018,05,22,04,01,8.80
2018,05,22,04,02,8.80
2018,05,22,04,03,8.70
2018,05,22,04,04,8.70
2018,05,22,04,05,8.70
2018,05,22,04,06,8.70
2018,05,22,04,07,8.70
2018,05,22,04,08,8.70
2018,05,22,04,09,8.70
2018,05,22,04,10,8.70
2018,05,22,04,11,8.70
2018,05,22,04,12,8.70
2018,05,22,04,13,8.70
2018,05,22,04,14,8.70
2018,05,22,04,15,8.70
2018,05,22,04,16,8.70
2018,05,22,04,17,8.60
2018,05,22,04,18,8.60
2018,05,22,04,19,8.60
2018,05,22,04,20,8.60
2018,05,22,04,21,8.60
2018,05,22,04,22,8.50
2018,05,22,04,23,8.50
2018,05,22,04,24,8.50
2018,05,22,04,25,8.50
2018,05,22,04,26,8.50
2018,05,22,04,27,8.50
2018,05,22,04,28,8.50
2018,05,22,04,29,8.50
2018,05,22,04,30,8.50
2018,05,22,04,31,8.40
2018,05,22,04,32,8.40
2018,05,22,04,33,8.40
2018,05,22,04,34,8.40
2018,05,22,04,35,8.40
2018,05,22,04,36,8.40
2018,05,22,04,37,8.40
2018,05,22,04,38,8.40
2018,05,22,04,39,8.40
2018,05,22,04,40,8.30
2018,05,22,04,41,8.30
2018,05,22,04,42,8.30
2018,05,22,04,43,8.30
2018,05,22,04,44,8.30
2018,05,22,04,45,8.30
2018,05,22,04,46,8.30
2018,05,22,04,47,8.30
2018,05,22,04,48,8.30
2018,05,22,04,49,8.30
2018,05,22,04,50,8.30
2018,05,22,04,51,8.30
2018,05,22,04,52,8.40
2018,05,22,04,53,8.40
2018,05,22,04,54,8.40
2018,05,22,04,55,8.40
2018,05,22,04,56,8.40
2018,05,22,04,57,8.40
2018,05,22,04,58,8.40
2018,05,22,04,59,8.40
2018,05,22,05,00,8.30
2018,05,22,05,01,8.30
2018,05,22,05,02,8.30
2018,05,22,05,03,8.30
2018,05,22,05,04,8.30
2018,05,22,05,05,8.30
2018,05,22,05,06,8.30
2018,05,22,05,07,8.30
2018,05,22,05,08,8.30
2018,05,22,05,09,8.30
2018,05,22,05,10,8.30
2018,05,22,05,11,8.30
2018,05,22,05,12,8.30
2018,05,22,05,13,8.30
2018,05,22,05,14,8.20
2018,05,22,05,15,8.20
2018,05,22,05,16,8.20
2018,05,22,05,17,8.20
2018,05,22,05,18,8.20
2018,05,22,05,19,8.20
2018,05,22,05,20,8.10
2018,05,22,05,21,8.10
2018,05,22,05,22,8.10
2018,05,22,05,23,8.10
2018,05,22,05,24,8.10
2018,05,22,05,25,8.00
2018,05,22,05,26,8.00
2018,05,22,05,27,8.00
2018,05,22,05,28,8.00
2018,05,22,05,29,8.00
2018,05,22,05,30,8.00
2018,05,22,05,31,8.00
2018,05,22,05,32,8.10
2018,05,22,05,33,8.10
2018,05,22,05,34,8.10
2018,05,22,05,35,8.00
2018,05,22,05,36,8.00
2018,05,22,05,37,8.00
2018,05,22,05,38,8.00
2018,05,22,05,39,8.00
2018,05,22,05,40,8.00
2018,05,22,05,41,7.90
2018,05,22,05,42,7.90
2018,05,22,05,43,8.00
2018,05,22,05,44,8.00
2018,05,22,05,45,8.00
2018,05,22,05,46,8.00
2018,05,22,05,47,8.00
2018,05,22,05,48,8.10
2018,05,22,05,49,8.10
2018,05,22,05,50,8.10
2018,05,22,05,51,8.10
2018,05,22,05,52,8.10
2018,05,22,05,53,8.20
2018,05,22,05,54,8.20
2018,05,22,05,55,8.20
2018,05,22,05,56,8.20
2018,05,22,05,57,8.20
2018,05,22,05,58,8.20
2018,05,22,05,59,8.20
2018,05,22,06,00,8.20
2018,05,22,06,01,8.20
2018,05,22,06,02,8.20
2018,05,22,06,03,8.20
2018,05,22,06,04,8.20
2018,05,22,06,05,8.20
2018,05,22,06,06,8.20
2018,05,22,06,07,8.20
2018,05,22,06,08,8.20
2018,05,22,06,09,8.20
2018,05,22,06,10,8.20
2018,05,22,06,11,8.20
2018,05,22,06,12,8.20
2018,05,22,06,13,8.20
2018,05,22,06,14,8.20
2018,05,22,06,15,8.20
2018,05,22,06,16,8.20
2018,05,22,06,17,8.20
2018,05,22,06,18,8.20
2018,05,22,06,19,8.20
2018,05,22,06,20,8.30
2018,05,22,06,21,8.30
2018,05,22,06,22,8.30
2018,05,22,06,23,8.40
2018,05,22,06,24,8.40
2018,05,22,06,25,8.50
2018,05,22,06,26,8.50
2018,05,22,06,27,8.50
2018,05,22,06,28,8.60
2018,05,22,06,29,8.60
2018,05,22,06,30,8.70
2018,05,22,06,31,8.70
2018,05,22,06,32,8.70
2018,05,22,06,33,8.80
2018,05,22,06,34,8.80
2018,05,22,06,35,8.90
2018,05,22,06,36,8.90
2018,05,22,06,37,8.90
2018,05,22,06,38,8.90
2018,05,22,06,39,9.00
2018,05,22,06,40,9.00
2018,05,22,06,41,9.00
2018,05,22,06,42,9.00
2018,05,22,06,43,9.00
2018,05,22,06,44,9.00
2018,05,22,06,45,9.00
2018,05,22,06,46,9.10
2018,05,22,06,47,9.10
2018,05,22,06,48,9.20
2018,05,22,06,49,9.20
2018,05,22,06,50,9.30
2018,05,22,06,51,9.30
2018,05,22,06,52,9.40
2018,05,22,06,53,9.40
2018,05,22,06,54,9.50
2018,05,22,06,55,9.60
2018,05,22,06,56,9.60
2018,05,22,06,57,9.70
2018,05,22,06,58,9.70
2018,05,22,06,59,9.80
2018,05,22,07,00,9.90
2018,05,22,07,01,10.00
2018,05,22,07,02,10.20
2018,05,22,07,03,10.30
2018,05,22,07,04,10.40
2018,05,22,07,05,10.50
2018,05,22,07,06,10.70
2018,05,22,07,07,10.80
2018,05,22,07,08,10.90
2018,05,22,07,09,10.90
2018,05,22,07,10,11.00
2018,05,22,07,11,11.10
2018,05,22,07,12,11.10
2018,05,22,07,13,11.10
2018,05,22,07,14,11.20
2018,05,22,07,15,11.20
2018,05,22,07,16,11.30
2018,05,22,07,17,11.40
2018,05,22,07,18,11.40
2018,05,22,07,19,11.50
2018,05,22,07,20,11.60
2018,05,22,07,21,11.60
2018,05,22,07,22,11.70
2018,05,22,07,23,11.80
2018,05,22,07,24,11.80
2018,05,22,07,25,11.80
2018,05,22,07,26,11.90
2018,05,22,07,27,12.00
2018,05,22,07,28,12.10
2018,05,22,07,29,12.20
2018,05,22,07,30,12.30
2018,05,22,07,31,12.40
2018,05,22,07,32,12.40
2018,05,22,07,33,12.30
2018,05,22,07,34,12.30
2018,05,22,07,35,12.40
2018,05,22,07,36,12.50
2018,05,22,07,37,12.60
2018,05,22,07,38,12.70
2018,05,22,07,39,12.70
2018,05,22,07,40,12.70
2018,05,22,07,41,12.80
2018,05,22,07,42,12.90
2018,05,22,07,43,13.00
2018,05,22,07,44,13.00
2018,05,22,07,45,13.00
2018,05,22,07,46,13.10
2018,05,22,07,47,13.10
2018,05,22,07,48,13.10
2018,05,22,07,49,13.20
2018,05,22,07,50,13.20
2018,05,22,07,51,13.20
2018,05,22,07,52,13.20
2018,05,22,07,53,13.20
2018,05,22,07,54,13.20
2018,05,22,07,55,13.20
2018,05,22,07,56,13.20
2018,05,22,07,57,13.20
2018,05,22,07,58,13.20
2018,05,22,07,59,13.20
2018,05,22,08,00,13.30
2018,05,22,08,01,13.30
2018,05,22,08,02,13.30
2018,05,22,08,03,13.30
2018,05,22,08,04,13.40
2018,05,22,08,05,13.40
2018,05,22,08,06,13.40
2018,05,22,08,07,13.50
2018,05,22,08,08,13.50
2018,05,22,08,09,13.50
2018,05,22,08,10,13.50
2018,05,22,08,11,13.50
2018,05,22,08,12,13.50
2018,05,22,08,13,13.60
2018,05,22,08,14,13.60
2018,05,22,08,15,13.70
2018,05,22,08,16,13.80
2018,05,22,08,17,13.90
2018,05,22,08,18,13.90
2018,05,22,08,19,14.00
2018,05,22,08,20,14.00
2018,05,22,08,21,14.10
2018,05,22,08,22,14.20
2018,05,22,08,23,14.30
2018,05,22,08,24,14.30
2018,05,22,08,25,14.30
2018,05,22,08,26,14.30
2018,05,22,08,27,14.40
2018,05,22,08,28,14.40
2018,05,22,08,29,14.40
2018,05,22,08,30,14.40
2018,05,22,08,31,14.40
2018,05,22,08,32,14.40
2018,05,22,08,33,14.50
2018,05,22,08,34,14.50
2018,05,22,08,35,14.60
2018,05,22,08,36,14.60
2018,05,22,08,37,14.70
2018,05,22,08,38,14.70
2018,05,22,08,39,14.80
2018,05,22,08,40,14.90
2018,05,22,08,41,15.00
2018,05,22,08,42,15.00
2018,05,22,08,43,15.00
2018,05,22,08,44,15.00
2018,05,22,08,45,15.10
2018,05,22,08,46,15.10
2018,05,22,08,47,15.20
2018,05,22,08,48,15.20
2018,05,22,08,49,15.20
2018,05,22,08,50,15.30
2018,05,22,08,51,15.30
2018,05,22,08,52,15.30
2018,05,22,08,53,15.40
2018,05,22,08,54,15.50
2018,05,22,08,55,15.50
2018,05,22,08,56,15.60
2018,05,22,08,57,15.70
2018,05,22,08,58,15.80
2018,05,22,08,59,15.80
2018,05,22,09,00,15.90
2018,05,22,09,01,16.10
2018,05,22,09,02,16.20
2018,05,22,09,03,16.20
2018,05,22,09,04,16.30
2018,05,22,09,05,16.30
2018,05,22,09,06,16.30
2018,05,22,09,07,16.30
2018,05,22,09,08,16.20
2018,05,22,09,09,16.20
2018,05,22,09,10,16.20
2018,05,22,09,11,16.20
2018,05,22,09,12,16.20
2018,05,22,09,13,16.10
2018,05,22,09,14,16.10
2018,05,22,09,15,16.10
2018,05,22,09,16,16.10
2018,05,22,09,17,16.10
2018,05,22,09,18,16.10
2018,05,22,09,19,16.00
2018,05,22,09,20,15.90
2018,05,22,09,21,16.10
2018,05,22,09,22,16.10
2018,05,22,09,23,16.10
2018,05,22,09,24,16.10
2018,05,22,09,25,16.20
2018,05,22,09,26,16.20
2018,05,22,09,27,16.20
2018,05,22,09,28,16.30
2018,05,22,09,29,16.30
2018,05,22,09,30,16.30
2018,05,22,09,31,16.30
2018,05,22,09,32,16.30
2018,05,22,09,33,16.20
2018,05,22,09,34,16.20
2018,05,22,09,35,16.20
2018,05,22,09,36,16.20
2018,05,22,09,37,16.10
2018,05,22,09,38,16.10
2018,05,22,09,39,16.10
2018,05,22,09,40,16.10
2018,05,22,09,41,16.00
2018,05,22,09,42,15.90
2018,05,22,09,43,15.90
2018,05,22,09,44,15.90
2018,05,22,09,45,15.90
2018,05,22,09,46,15.90
2018,05,22,09,47,16.00
2018,05,22,09,48,16.10
2018,05,22,09,49,16.10
2018,05,22,09,50,16.20
2018,05,22,09,51,16.20
2018,05,22,09,52,16.30
2018,05,22,09,53,16.40
2018,05,22,09,54,16.40
2018,05,22,09,55,16.40
2018,05,22,09,56,16.40
2018,05,22,09,57,16.50
2018,05,22,09,58,16.60
2018,05,22,09,59,16.60
2018,05,22,10,00,16.50
2018,05,22,10,01,16.40
2018,05,22,10,02,16.40
2018,05,22,10,03,16.40
2018,05,22,10,04,16.40
2018,05,22,10,05,16.40
2018,05,22,10,06,16.40
2018,05,22,10,07,16.40
2018,05,22,10,08,16.40
2018,05,22,10,09,16.40
2018,05,22,10,10,16.30
2018,05,22,10,11,16.30
2018,05,22,10,12,16.20
2018,05,22,10,13,16.10
2018,05,22,10,14,16.10
2018,05,22,10,15,16.10
2018,05,22,10,16,16.10
2018,05,22,10,17,16.00
2018,05,22,10,18,15.90
2018,05,22,10,19,15.80
2018,05,22,10,20,15.80
2018,05,22,10,21,15.80
2018,05,22,10,22,15.80
2018,05,22,10,23,15.80
2018,05,22,10,24,15.90
2018,05,22,10,25,15.90
2018,05,22,10,26,16.10
2018,05,22,10,27,16.20
2018,05,22,10,28,16.30
2018,05,22,10,29,16.40
2018,05,22,10,30,16.40
2018,05,22,10,31,16.40
2018,05,22,10,32,16.60
2018,05,22,10,33,16.60
2018,05,22,10,34,16.70
2018,05,22,10,35,16.70
2018,05,22,10,36,16.70
2018,05,22,10,37,16.70
2018,05,22,10,38,16.70
2018,05,22,10,39,16.70
2018,05,22,10,40,16.70
2018,05,22,10,41,16.70
2018,05,22,10,42,16.70
2018,05,22,10,43,16.70
2018,05,22,10,44,16.70
2018,05,22,10,45,16.70
2018,05,22,10,46,16.70
2018,05,22,10,47,16.70
2018,05,22,10,48,16.70
2018,05,22,10,49,16.70
2018,05,22,10,50,16.50
2018,05,22,10,51,16.30
2018,05,22,10,52,16.30
2018,05,22,10,53,16.30
2018,05,22,10,54,16.20
2018,05,22,10,55,16.20
2018,05,22,10,56,16.10
2018,05,22,10,57,16.00
2018,05,22,10,58,15.90
2018,05,22,10,59,15.80
2018,05,22,11,00,15.60
2018,05,22,11,01,15.50
2018,05,22,11,02,15.40
2018,05,22,11,03,15.40
2018,05,22,11,04,15.60
2018,05,22,11,05,15.70
2018,05,22,11,06,15.80
2018,05,22,11,07,15.80
2018,05,22,11,08,15.80
2018,05,22,11,09,15.70
2018,05,22,11,10,15.60
2018,05,22,11,11,15.50
2018,05,22,11,12,15.50
2018,05,22,11,13,15.50
2018,05,22,11,14,15.50
2018,05,22,11,15,15.50
2018,05,22,11,16,15.50
2018,05,22,11,17,15.50
2018,05,22,11,18,15.50
2018,05,22,11,19,15.60
2018,05,22,11,20,15.70
2018,05,22,11,21,15.80
2018,05,22,11,22,15.80
2018,05,22,11,23,16.00
2018,05,22,11,24,16.10
2018,05,22,11,25,16.10
2018,05,22,11,26,16.30
2018,05,22,11,27,16.40
2018,05,22,11,28,16.50
2018,05,22,11,29,16.70
2018,05,22,11,30,16.70
2018,05,22,11,31,16.70
2018,05,22,11,32,16.70
2018,05,22,11,33,16.80
2018,05,22,11,34,16.90
2018,05,22,11,35,16.90
2018,05,22,11,36,16.90
2018,05,22,11,37,16.90
2018,05,22,11,38,16.70
2018,05,22,11,39,16.70
2018,05,22,11,40,16.60
2018,05,22,11,41,16.60
2018,05,22,11,42,16.60
2018,05,22,11,43,16.70
2018,05,22,11,44,16.80
2018,05,22,11,45,17.00
2018,05,22,11,46,17.10
2018,05,22,11,47,17.20
2018,05,22,11,48,17.10
2018,05,22,11,49,17.10
2018,05,22,11,50,17.20
2018,05,22,11,51,17.30
2018,05,22,11,52,17.30
2018,05,22,11,53,17.30
2018,05,22,11,54,17.30
2018,05,22,11,55,17.30
2018,05,22,11,56,17.50
2018,05,22,11,57,17.60
2018,05,22,11,58,17.70
2018,05,22,11,59,17.80
2018,05,22,12,00,17.70
2018,05,22,12,01,17.70
2018,05,22,12,02,17.60
2018,05,22,12,03,17.50
2018,05,22,12,04,17.50
2018,05,22,12,05,17.30
2018,05,22,12,06,17.30
2018,05,22,12,07,17.10
2018,05,22,12,08,16.90
2018,05,22,12,09,16.70
2018,05,22,12,10,16.70
2018,05,22,12,11,16.70
2018,05,22,12,12,16.60
2018,05,22,12,13,16.60
2018,05,22,12,14,16.60
2018,05,22,12,15,16.70
2018,05,22,12,16,16.70
2018,05,22,12,17,16.70
2018,05,22,12,18,16.80
2018,05,22,12,19,16.80
2018,05,22,12,20,16.90
2018,05,22,12,21,16.90
2018,05,22,12,22,17.00
2018,05,22,12,23,17.00
2018,05,22,12,24,16.90
2018,05,22,12,25,16.90
2018,05,22,12,26,16.90
2018,05,22,12,27,16.90
2018,05,22,12,28,16.90
2018,05,22,12,29,16.70
2018,05,22,12,30,16.70
2018,05,22,12,31,16.70
2018,05,22,12,32,16.70
2018,05,22,12,33,16.80
2018,05,22,12,34,16.90
2018,05,22,12,35,16.90
2018,05,22,12,36,17.00
2018,05,22,12,37,17.00
2018,05,22,12,38,17.00
2018,05,22,12,39,17.00
2018,05,22,12,40,17.20
2018,05,22,12,41,17.30
2018,05,22,12,42,17.30
2018,05,22,12,43,17.30
2018,05,22,12,44,17.30
2018,05,22,12,45,17.30
2018,05,22,12,46,17.20
2018,05,22,12,47,17.30
2018,05,22,12,48,17.30
2018,05,22,12,49,17.30
2018,05,22,12,50,17.30
2018,05,22,12,51,17.20
2018,05,22,12,52,17.10
2018,05,22,12,53,17.00
2018,05,22,12,54,17.00
2018,05,22,12,55,17.10
2018,05,22,12,56,17.00
2018,05,22,12,57,17.00
2018,05,22,12,58,17.00
2018,05,22,12,59,16.90
2018,05,22,13,00,16.80
2018,05,22,13,01,16.90
2018,05,22,13,02,17.00
2018,05,22,13,03,17.20
2018,05,22,13,04,17.30
2018,05,22,13,05,17.30
2018,05,22,13,06,17.20
2018,05,22,13,07,17.30
2018,05,22,13,08,17.30
2018,05,22,13,09,17.40
2018,05,22,13,10,17.40
2018,05,22,13,11,17.30
2018,05,22,13,12,17.20
2018,05,22,13,13,17.20
2018,05,22,13,14,17.20
2018,05,22,13,15,17.20
2018,05,22,13,16,17.20
2018,05,22,13,17,17.20
2018,05,22,13,18,17.20
2018,05,22,13,19,17.30
2018,05,22,13,20,17.30
2018,05,22,13,21,17.40
2018,05,22,13,22,17.50
2018,05,22,13,23,17.60
2018,05,22,13,24,17.50
2018,05,22,13,25,17.40
2018,05,22,13,26,17.50
2018,05,22,13,27,17.60
2018,05,22,13,28,17.60
2018,05,22,13,29,17.50
2018,05,22,13,30,17.60
2018,05,22,13,31,17.60
2018,05,22,13,32,17.70
2018,05,22,13,33,17.60
2018,05,22,13,34,17.60
2018,05,22,13,35,17.50
2018,05,22,13,36,17.60
2018,05,22,13,37,17.60
2018,05,22,13,38,17.60
2018,05,22,13,39,17.70
2018,05,22,13,40,17.70
2018,05,22,13,41,17.70
2018,05,22,13,42,17.70
2018,05,22,13,43,17.70
2018,05,22,13,44,17.80
2018,05,22,13,45,17.80
2018,05,22,13,46,17.80
2018,05,22,13,47,17.80
2018,05,22,13,48,17.70
2018,05,22,13,49,17.60
2018,05,22,13,50,17.80
2018,05,22,13,51,17.80
2018,05,22,13,52,17.90
2018,05,22,13,53,17.90
2018,05,22,13,54,18.00
2018,05,22,13,55,18.10
2018,05,22,13,56,18.20
2018,05,22,13,57,18.30
2018,05,22,13,58,18.30
2018,05,22,13,59,18.20
2018,05,22,14,00,18.20
2018,05,22,14,01,18.20
2018,05,22,14,02,18.30
2018,05,22,14,03,18.30
2018,05,22,14,04,18.50
2018,05,22,14,05,18.60
2018,05,22,14,06,18.70
2018,05,22,14,07,18.80
2018,05,22,14,08,18.90
2018,05,22,14,09,18.90
2018,05,22,14,10,18.90
2018,05,22,14,11,18.90
2018,05,22,14,12,18.70
2018,05,22,14,13,18.60
2018,05,22,14,14,18.70
2018,05,22,14,15,18.80
2018,05,22,14,16,18.80
2018,05,22,14,17,18.70
2018,05,22,14,18,18.80
2018,05,22,14,19,18.60
2018,05,22,14,20,18.40
2018,05,22,14,21,18.30
2018,05,22,14,22,18.30
2018,05,22,14,23,18.40
2018,05,22,14,24,18.50
2018,05,22,14,25,18.50
2018,05,22,14,26,18.60
2018,05,22,14,27,18.70
2018,05,22,14,28,18.80
2018,05,22,14,29,18.80
2018,05,22,14,30,18.80
2018,05,22,14,31,18.90
2018,05,22,14,32,18.90
2018,05,22,14,33,19.00
2018,05,22,14,34,19.00
2018,05,22,14,35,18.90
2018,05,22,14,36,18.80
2018,05,22,14,37,18.80
2018,05,22,14,38,18.70
2018,05,22,14,39,18.60
2018,05,22,14,40,18.60
2018,05,22,14,41,18.70
2018,05,22,14,42,18.70
2018,05,22,14,43,18.80
2018,05,22,14,44,18.90
2018,05,22,14,45,19.00
2018,05,22,14,46,19.10
2018,05,22,14,47,19.10
2018,05,22,14,48,19.10
2018,05,22,14,49,19.10
2018,05,22,14,50,19.30
2018,05,22,14,51,19.30
2018,05,22,14,52,19.30
2018,05,22,14,53,19.30
2018,05,22,14,54,19.40
2018,05,22,14,55,19.30
2018,05,22,14,56,19.30
2018,05,22,14,57,19.40
2018,05,22,14,58,19.40
2018,05,22,14,59,19.50
2018,05,22,15,00,19.50
2018,05,22,15,01,19.50
2018,05,22,15,02,19.50
2018,05,22,15,03,19.60
2018,05,22,15,04,19.50
2018,05,22,15,05,19.40
2018,05,22,15,06,19.50
2018,05,22,15,07,19.50
2018,05,22,15,08,19.40
2018,05,22,15,09,19.40
2018,05,22,15,10,19.50
2018,05,22,15,11,19.50
2018,05,22,15,12,19.60
2018,05,22,15,13,19.60
2018,05,22,15,14,19.60
2018,05,22,15,15,19.60
2018,05,22,15,16,19.50
2018,05,22,15,17,19.40
2018,05,22,15,18,19.40
2018,05,22,15,19,19.60
2018,05,22,15,20,19.70
2018,05,22,15,21,19.80
2018,05,22,15,22,20.00
2018,05,22,15,23,20.20
2018,05,22,15,24,20.20
2018,05,22,15,25,20.30
2018,05,22,15,26,20.30
2018,05,22,15,27,20.30
2018,05,22,15,28,20.30
2018,05,22,15,29,20.30
2018,05,22,15,30,20.30
2018,05,22,15,31,20.30
2018,05,22,15,32,20.40
2018,05,22,15,33,20.40
2018,05,22,15,34,20.40
2018,05,22,15,35,20.50
2018,05,22,15,36,20.50
2018,05,22,15,37,20.50
2018,05,22,15,38,20.50
2018,05,22,15,39,20.50
2018,05,22,15,40,20.40
2018,05,22,15,41,20.30
2018,05,22,15,42,20.30
2018,05,22,15,43,20.30
2018,05,22,15,44,20.50
2018,05,22,15,45,20.50
2018,05,22,15,46,20.50
2018,05,22,15,47,20.50
2018,05,22,15,48,20.60
2018,05,22,15,49,20.60
2018,05,22,15,50,20.60
2018,05,22,15,51,20.60
2018,05,22,15,52,20.60
2018,05,22,15,53,20.50
2018,05,22,15,54,20.40
2018,05,22,15,55,20.40
2018,05,22,15,56,20.30
2018,05,22,15,57,20.30
2018,05,22,15,58,20.30
2018,05,22,15,59,20.30
2018,05,22,16,00,20.40
2018,05,22,16,01,20.50
2018,05,22,16,02,20.60
2018,05,22,16,03,20.60
2018,05,22,16,04,20.60
2018,05,22,16,05,20.50
2018,05,22,16,06,20.50
2018,05,22,16,07,20.60
2018,05,22,16,08,20.60
2018,05,22,16,09,20.70
2018,05,22,16,10,20.70
2018,05,22,16,11,20.70
2018,05,22,16,12,20.70
2018,05,22,16,13,20.60
2018,05,22,16,14,20.60
2018,05,22,16,15,20.60
2018,05,22,16,16,20.60
2018,05,22,16,17,20.60
2018,05,22,16,18,20.60
2018,05,22,16,19,20.70
2018,05,22,16,20,20.80
2018,05,22,16,21,20.90
2018,05,22,16,22,20.90
2018,05,22,16,23,20.90
2018,05,22,16,24,21.00
2018,05,22,16,25,21.10
2018,05,22,16,26,21.10
2018,05,22,16,27,21.00
2018,05,22,16,28,20.80
2018,05,22,16,29,20.80
2018,05,22,16,30,20.90
2018,05,22,16,31,21.10
2018,05,22,16,32,21.10
2018,05,22,16,33,21.00
2018,05,22,16,34,21.10
2018,05,22,16,35,21.10
2018,05,22,16,36,21.20
2018,05,22,16,37,21.30
2018,05,22,16,38,21.20
2018,05,22,16,39,21.20
2018,05,22,16,40,21.20
2018,05,22,16,41,21.30
2018,05,22,16,42,21.20
2018,05,22,16,43,21.10
2018,05,22,16,44,20.90
2018,05,22,16,45,20.90
2018,05,22,16,46,20.90
2018,05,22,16,47,21.00
2018,05,22,16,48,21.00
2018,05,22,16,49,21.00
2018,05,22,16,50,21.00
2018,05,22,16,51,21.10
2018,05,22,16,52,21.10
2018,05,22,16,53,21.00
2018,05,22,16,54,20.90
2018,05,22,16,55,20.80
2018,05,22,16,56,20.70
2018,05,22,16,57,20.60
2018,05,22,16,58,20.60
2018,05,22,16,59,20.60
2018,05,22,17,00,20.50
2018,05,22,17,01,20.40
2018,05,22,17,02,20.30
2018,05,22,17,03,20.30
2018,05,22,17,04,20.50
2018,05,22,17,05,20.40
2018,05,22,17,06,20.40
2018,05,22,17,07,20.40
2018,05,22,17,08,20.40
2018,05,22,17,09,20.30
2018,05,22,17,10,20.30
2018,05,22,17,11,20.30
2018,05,22,17,12,20.30
2018,05,22,17,13,20.20
2018,05,22,17,14,20.20
2018,05,22,17,15,20.20
2018,05,22,17,16,20.20
2018,05,22,17,17,20.20
2018,05,22,17,18,20.30
2018,05,22,17,19,20.40
2018,05,22,17,20,20.50
2018,05,22,17,21,20.50
2018,05,22,17,22,20.60
2018,05,22,17,23,20.60
2018,05,22,17,24,20.50
2018,05,22,17,25,20.60
2018,05,22,17,26,20.60
2018,05,22,17,27,20.60
2018,05,22,17,28,20.70
2018,05,22,17,29,20.80
2018,05,22,17,30,20.80
2018,05,22,17,31,20.80
2018,05,22,17,32,20.80
2018,05,22,17,33,20.80
2018,05,22,17,34,20.80